This demonstration page uses our WeatherBlox Daily Observations layout. Learn more.

Left ArrowRight Arrow

30.21309, -93.2044

Hourly Observations for February 13, 2022

Temp ( °F °C ) Dew Point ( °F °C ) Humidity (%) Winds ( mph kmh ) Pressure ( in mb ) Visibility ( mi km ) Precip ( " mm )
12:15 am 00:15 Partly Cloudy 41 4.8 33 0.4 73 73 N 14 22 30.39 1029 10 16 0.00 0.00
12:35 am 00:35 Partly Cloudy 40 4.6 33 0.6 76 76 N 8 13 30.39 1029 10 16 0.00 0.00
12:55 am 00:55 Partly Cloudy 40 4.3 33 0.7 78 78 N 10 17 30.38 1029 10 16 0.00 0.00
1:15 am 01:15 Clear 40 4.2 33 0.6 78 78 N 12 19 30.38 1029 10 16 0.00 0.00
1:35 am 01:35 Clear 39 3.9 33 0.4 78 78 N 10 17 30.37 1028 10 16 0.00 0.00
1:55 am 01:55 Clear 39 3.8 32 0.2 78 78 N 13 20 30.38 1029 10 16 0.00 0.00
2:15 am 02:15 Clear 38 3.5 31 -0.4 76 76 N 14 22 30.38 1029 10 16 0.00 0.00
2:35 am 02:35 Clear 38 3.3 30 -0.9 74 74 N 13 20 30.38 1029 10 16 0.00 0.00
2:55 am 02:55 Clear 37 3 29 -1.4 73 73 N 13 20 30.38 1029 10 16 0.00 0.00
3:15 am 03:15 Clear 37 2.7 29 -1.8 73 73 N 12 19 30.38 1029 10 16 0.00 0.00
3:35 am 03:35 Clear 36 2.1 29 -1.9 75 75 N 9 15 30.39 1029 10 16 0.00 0.00
3:55 am 03:55 Clear 35 1.9 28 -2.1 75 75 N 10 17 30.39 1029 10 16 0.00 0.00
4:15 am 04:15 Clear 35 1.8 28 -2.4 74 74 N 9 15 30.38 1029 10 16 0.00 0.00
4:35 am 04:35 Clear 35 1.5 28 -2.5 75 75 N 8 13 30.39 1029 10 16 0.00 0.00
4:55 am 04:55 Clear 34 1.1 27 -2.9 75 75 N 8 13 30.40 1029 10 16 0.00 0.00
5:15 am 05:15 Clear 33 0.8 26 -3.4 74 74 N 8 13 30.40 1029 10 16 0.00 0.00
5:35 am 05:35 Clear 33 0.5 25 -3.7 74 74 N 6 9 30.41 1030 10 16 0.00 0.00
6:00 am 06:00 Mostly Clear 32 0 25 -4 75 75 NNW 7 11 30.42 1030 10 16 0.00 0.00
6:54 am 06:54 Mostly Clear 32 0 23 -5 69 69 N 7 11 30.45 1031 10 16 0.00 0.00
7:55 am 07:55 Mostly Sunny 34 1 23 -5 65 65 N 7 11 30.48 1032 10 16 0.00 0.00
8:52 am 08:52 Mostly Sunny 37 3 23 -5 56 56 NNE 8 13 30.49 1033 10 16 0.00 0.00
9:56 am 09:56 Mostly Sunny 41 5 23 -5 49 49 N 8 13 30.50 1033 10 16 0.00 0.00
10:55 am 10:55 Mostly Sunny 41 5 23 -5 49 49 N 8 13 30.50 1033 10 16 0.00 0.00
11:54 am 11:54 Mostly Sunny 48 9 19 -7 32 32 NNW 13 20 30.47 1032 10 16 0.00 0.00
12:55 pm 12:55 Mostly Sunny 52 11 19 -7 28 28 NNW 13 20 30.43 1030 10 16 0.00 0.00
1:50 pm 13:50 Mostly Sunny 55 13 19 -7 24 24 NNE 10 17 30.39 1029 10 16 0.00 0.00
2:47 pm 14:47 Mostly Sunny 55 13 19 -7 24 24 NNW 14 22 30.37 1028 10 16 0.00 0.00
3:52 pm 15:52 Mostly Sunny 57 14 21 -6 25 25 NNW 13 20 30.36 1028 10 16 0.00 0.00
4:45 pm 16:45 Mostly Sunny 57 14 21 -6 25 25 NNW 14 22 30.37 1028 10 16 0.00 0.00
5:45 pm 17:45 Mostly Sunny 54 12 30 -1 41 41 N 14 22 30.36 1028 10 16 0.00 0.00
6:55 pm 18:55 Mostly Clear 52 11 21 -6 30 30 N 6 9 30.38 1029 10 16 0.00 0.00
7:55 pm 19:55 Mostly Clear 45 7 27 -3 49 49 WNW 3 6 30.40 1029 10 16 0.00 0.00
8:50 pm 20:50 Mostly Clear 43 6 28 -2 57 57 Calm 30.41 1030 10 16 0.00 0.00
9:55 pm 21:55 Mostly Clear 37 3 28 -2 70 70 Calm 30.41 1030 10 16 0.00 0.00
10:15 pm 22:15 Clear 35 1.5 28 -2.5 75 75 S 3 6 30.41 1030 10 16 0.00 0.00
10:35 pm 22:35 Clear 36 2.4 28 -2 73 73 SW 3 6 30.41 1030 10 16 0.00 0.00
10:55 pm 22:55 Clear 38 3.2 29 -1.8 70 70 Calm 30.41 1030 10 16 0.00 0.00
11:15 pm 23:15 Clear 38 3.3 30 -1.3 72 72 Calm 30.41 1030 10 16 0.00 0.00
11:35 pm 23:35 Clear 36 2.1 28 -2.4 72 72 Calm 30.41 1030 10 16 0.00 0.00
11:55 pm 23:55 Clear 33 0.5 28 -2 84 84 SSE 3 6 30.40 1029 10 16 0.00 0.00

Powered by AerisWeather